Location: Waltman Observatory
(32.5145°N, 90.4450°W)
Time: 00:16:59
(UTC-05:00)

Amateur Radio Satellites - All Passes

Search period start: 24 May 2016 23:46
Search period end: 25 May 2016 23:46
Location: Waltman Observatory, 32.5145°N, 90.4450°W

Satellite Date Start Highest point End Downlink Frequencies (MHz)
Time Altitude Azimuth
ISS 24 May 23:50:16 23:51:30 12° 330° (NNW) 23:52:45 145.825
UNISAT 6 24 May 23:53:07 23:57:09 40° 286° (WNW) 00:01:12 437.425
ESTCUBE 1 24 May 23:58:16 00:02:43 66° 258° (WSW) 00:07:13 437.505/2401.250
UKube-1 24 May 23:58:59 00:03:12 54° 75° (ENE) 00:07:26 .
PHONESAT 2.4 25 May 00:00:29 00:03:31 45° 339° (NNW) 00:06:33 2401.200-2431.200
TIGRISAT 25 May 00:01:56 00:05:47 33° 287° (WNW) 00:09:42 435.000
BUGSAT 1 25 May 00:14:45 00:17:38 19° 95° (E) 00:20:30 437.445
POPSAT HIP 1 25 May 00:16:29 00:20:36 55° 100° (E) 00:24:41 437.405
QB50P1 25 May 00:17:11 00:21:20 58° 101° (E) 00:25:26 145.935-145.965
QB50P2 25 May 00:18:18 00:22:29 64° 101° (E) 00:26:38 145.880/145.840
TISAT 1 25 May 00:20:04 00:21:50 12° 67° (ENE) 00:23:35 437.305
POLYITAN 1 25 May 00:20:44 00:24:54 66° 101° (ESE) 00:29:04 437.675
DANDE 25 May 00:22:29 00:30:59 89° 83° (E) 00:38:34 436.750
AIST 2 25 May 00:24:19 00:28:29 81° 243° (WSW) 00:32:36 435.215
50 SAT 25 May 00:27:49 00:31:00 29° 262° (W) 00:34:12 437.505
VELOX 1 25 May 00:34:16 00:38:23 37° 262° (W) 00:42:31 145.980
CUBEBUG 1 25 May 00:35:53 00:39:54 34° 262° (W) 00:43:57 437.445
ANTELSAT 25 May 00:36:05 00:38:14 14° 292° (WNW) 00:40:25 437.575/2403.000
NANOSAT C BR1 25 May 00:37:27 00:41:38 80° 282° (WNW) 00:45:48 145.865
DX 1 25 May 00:39:56 00:43:59 36° 262° (W) 00:48:03 434.975-435.025
CUSAT 1 25 May 01:00:08 01:05:47 23° 277° (W) 01:10:46 437.405
SO-50 25 May 01:06:33 01:11:24 70° 116° (ESE) 01:16:18 436.795
Oscar 19 25 May 01:11:32 01:13:23 12° 92° (E) 01:15:13 437.125/150
AISAT 25 May 01:12:07 01:14:18 13° 266° (W) 01:16:29 437.250
SPROUT 25 May 01:17:37 01:21:24 30° 263° (W) 01:25:11 437.525
DUCHIFAT 1 25 May 01:18:10 01:21:40 26° 288° (WNW) 01:25:09 145.980
RS-15 25 May 01:21:40 01:30:38 22° 37° (NE) 01:39:35 29.354- 29.394
JAS-2 25 May 01:34:16 01:41:34 57° 99° (E) 01:48:02 435.910
BEESAT 25 May 01:36:20 01:39:30 18° 68° (ENE) 01:42:39 436.000
PHONESAT 2.4 25 May 01:38:23 01:40:43 19° 355° (N) 01:43:04 2401.200-2431.200
BUGSAT 1 25 May 01:49:41 01:52:56 24° 289° (WNW) 01:56:10 437.445
TISAT 1 25 May 01:53:01 01:57:03 43° 261° (W) 02:01:06 437.305
DANDE 25 May 02:08:07 02:12:33 16° 280° (W) 02:16:48 436.750
SWISSCUBE 25 May 02:42:02 02:46:46 75° 258° (WSW) 02:51:32 437.505
Gurwin Techsat 1B 25 May 02:45:54 02:51:03 48° 100° (E) 02:56:08 435.225
ITUPSAT 1 25 May 02:46:29 02:51:14 77° 258° (WSW) 02:56:01 437.325
Oscar 19 25 May 02:47:56 02:53:01 61° 286° (WNW) 02:58:04 437.125/150
SO-50 25 May 02:49:55 02:52:21 14° 312° (NW) 02:54:48 436.795
Cosmos 2491 25 May 02:55:20 02:56:44 10° 77° (ENE) 02:58:09 435.465 / 435.565
AO-7 25 May 03:01:01 03:01:34 10° 91° (E) 03:02:06 29.400- 29.500
BEESAT 25 May 03:12:34 03:16:57 37° 261° (W) 03:21:21 436.000
MOZHAYETS 4 25 May 03:15:04 03:17:50 16° 68° (ENE) 03:20:34
PHONESAT 2.4 25 May 03:15:32 03:18:07 23° 12° (NNE) 03:20:41 2401.200-2431.200
JAS-2 25 May 03:20:17 03:25:53 24° 297° (WNW) 03:31:06 435.910
KKS-1 25 May 03:20:43 03:24:27 27° 71° (ENE) 03:28:12 437.445
ITAMSAT 1 25 May 03:22:50 03:27:44 41° 99° (E) 03:32:38 435.822/435.867
RS-15 25 May 03:33:06 03:45:30 77° 61° (ENE) 03:57:44 29.354- 29.394
YUBILEINY 25 May 03:55:57 04:04:36 61° 81° (E) 04:13:16 435.215
STARS 25 May 04:04:13 04:08:22 41° 73° (ENE) 04:12:31 437.465
Gurwin Techsat 1B 25 May 04:27:09 04:30:33 17° 294° (WNW) 04:33:56 435.225
CUBESAT XI-V 25 May 04:33:18 04:35:00 12° 66° (ENE) 04:36:42 437.345
Cosmos 2491 25 May 04:43:12 04:52:01 77° 93° (E) 05:00:51 435.465 / 435.565
HORYU 2 25 May 04:44:00 04:46:17 14° 94° (E) 04:48:33 437.375
ISS 25 May 04:44:07 04:45:31 12° 31° (NNE) 04:46:54 145.825
AO-7 25 May 04:46:55 04:55:19 75° 106° (ESE) 05:03:41 29.400- 29.500
MOZHAYETS 4 25 May 04:50:24 04:54:37 38° 262° (W) 04:58:52
PHONESAT 2.4 25 May 04:52:00 04:55:07 89° 352° (N) 04:58:14 2401.200-2431.200
Cosmos 2504 25 May 04:54:59 05:02:53 42° 78° (ENE) 05:11:05 435.465 / 435.565
KKS-1 25 May 04:57:29 05:00:56 22° 264° (W) 05:04:24 437.445
ITAMSAT 1 25 May 05:03:10 05:06:52 20° 293° (WNW) 05:10:33 435.822/435.867
STARS 25 May 05:42:41 05:44:51 13° 266° (W) 05:47:00 437.465
RS-15 25 May 05:47:31 05:56:44 26° 258° (WSW) 06:05:53 29.354- 29.394
YUBILEINY 25 May 05:54:15 06:00:38 23° 277° (W) 06:07:03 435.215
CUBESAT XI-V 25 May 06:07:17 06:11:50 56° 260° (W) 06:16:26 437.345
JUGNU 25 May 06:10:56 06:13:04 12° 163° (SSE) 06:15:11 437.505
CUTE-I 25 May 06:16:52 06:20:26 18° 94° (E) 06:23:59 437.470
STRAND 1 25 May 06:17:46 06:20:09 13° 65° (ENE) 06:22:32 437.568
HORYU 2 25 May 06:18:48 06:22:57 40° 287° (WNW) 06:27:05 437.375
ISS 25 May 06:19:01 06:22:16 68° 226° (SW) 06:25:29 145.825
PHONESAT 2.4 25 May 06:30:27 06:31:31 11° 219° (SW) 06:32:34 2401.200-2431.200
AO-85 25 May 06:31:36 06:36:57 60° 115° (ESE) 06:42:17 145.980
AO-7 25 May 06:41:24 06:47:12 21° 302° (WNW) 06:53:01 29.400- 29.500
NOAA 18 25 May 06:43:06 06:48:16 41° 100° (E) 06:53:25 137.9125
Cosmos 2491 25 May 06:43:57 06:49:39 18° 291° (WNW) 06:55:23 435.465 / 435.565
Cosmos 2504 25 May 06:48:32 06:56:02 36° 273° (W) 07:03:49 435.465 / 435.565
BRITE-PL 25 May 07:02:34 07:07:39 64° 100° (E) 07:12:18 437.365/2234.400
Cubesat XI-IV 25 May 07:08:08 07:13:26 61° 101° (E) 07:18:43 437.490
DOVE 4 25 May 07:10:07 07:11:31 11° 92° (E) 07:12:54 437.250
NOAA 15 25 May 07:13:49 07:19:07 78° 284° (WNW) 07:24:23 137.62
LilacSat-2 25 May 07:21:20 07:25:07 83° 282° (WNW) 07:28:53 437.200
GOMX 1 25 May 07:42:02 07:46:43 76° 101° (ESE) 07:51:04 467.674
STRAND 1 25 May 07:53:45 07:58:45 59° 259° (W) 08:03:47 437.568
CUTE-I 25 May 07:55:32 08:00:36 45° 288° (WNW) 08:05:41 437.470
JUGNU 25 May 07:57:04 08:01:26 21° 172° (S) 08:05:48 437.505
CINEMA 3 25 May 08:01:14 08:02:45 12° 93° (E) 08:04:18 145.822/145.860
AIST 1 25 May 08:04:24 08:05:58 12° 73° (ENE) 08:07:31
AUBIESAT-1 25 May 08:11:09 08:12:38 12° 100° (E) 08:14:07 437.475
AO-85 25 May 08:14:07 08:17:49 18° 310° (NW) 08:21:30 145.980
M-CUBED/EXP-1 PRIME 25 May 08:14:33 08:16:52 18° 101° (E) 08:19:10 437.505
NOAA 18 25 May 08:24:34 08:28:35 21° 294° (WNW) 08:32:37 137.9125
BRITE-PL 25 May 08:43:39 08:45:21 12° 297° (WNW) 08:47:02 437.365/2234.400
CANX-2 25 May 08:44:59 08:49:10 50° 100° (E) 08:53:19 2200.000
DOVE 4 25 May 08:45:20 08:49:29 42° 286° (WNW) 08:53:27 437.250
Cubesat XI-IV 25 May 08:50:11 08:52:56 14° 295° (WNW) 08:55:40 437.490
SEEDS 25 May 08:53:31 08:57:29 38° 98° (E) 09:01:27 437.485
PRISM 25 May 09:00:58 09:05:00 55° 259° (W) 09:09:05 437.425
HO-68 25 May 09:05:11 09:12:22 71° 104° (ESE) 09:19:31 435.675
CUBEBUG 2 25 May 09:07:58 09:11:16 22° 96° (E) 09:14:36 437.445
Oscar 11 25 May 09:08:13 09:09:18 11° 93° (E) 09:10:22 145.826/435.025
CUTE 1.7 + AOD 2 25 May 09:12:42 09:17:00 82° 281° (W) 09:21:16 437.475
ZACube-1 25 May 09:16:23 09:17:53 12° 93° (E) 09:19:25 437.345
CINEMA 3 25 May 09:36:11 09:40:04 39° 286° (WNW) 09:43:54 145.822/145.860
Cosmos 2499 25 May 09:37:56 09:45:51 39° 77° (ENE) 09:53:57 435.465 / 435.565
AIST 1 25 May 09:39:39 09:43:46 42° 268° (W) 09:47:49
UWE-3 25 May 09:41:55 09:45:50 40° 99° (E) 09:49:50 435.000/436.395/437.385
SO-50 25 May 09:43:34 09:46:52 19° 51° (NE) 09:50:06 436.795
AUBIESAT-1 25 May 09:44:30 09:47:09 23° 292° (WNW) 09:49:48 437.475
COMPASS 1 25 May 09:44:37 09:48:49 68° 283° (WNW) 09:52:59 437.405
JUGNU 25 May 09:45:12 09:49:52 24° 182° (S) 09:54:32 437.505
SRMSAT 25 May 09:45:26 09:49:31 19° 170° (S) 09:53:35 437.500
GONETS M04 25 May 09:45:36 09:54:18 72° 83° (E) 10:02:57
PCSat 25 May 09:47:30 09:52:23 36° 109° (ESE) 09:57:19 145.827
M-CUBED/EXP-1 PRIME 25 May 09:49:17 09:51:19 16° 294° (WNW) 09:53:20 437.505
AAUSAT CUBESAT 2 25 May 09:49:54 09:54:05 75° 284° (WNW) 09:58:16 437.432
ANTELSAT 25 May 09:52:54 09:56:13 21° 70° (ENE) 09:59:28 437.575/2403.000
FUNcube-1 25 May 09:53:57 09:57:44 33° 98° (E) 10:01:36 145.935
O/OREOS (USA 219) 25 May 10:02:44 10:07:16 65° 107° (ESE) 10:11:47 437.305
CANX-2 25 May 10:23:23 10:24:31 11° 293° (WNW) 10:25:39 2200.000
SEEDS 25 May 10:30:36 10:32:49 14° 291° (WNW) 10:35:01 437.485
Oscar 11 25 May 10:41:26 10:45:38 48° 285° (WNW) 10:49:48 145.826/435.025
DELFI C3 25 May 10:42:29 10:46:31 77° 101° (ESE) 10:50:33 145.870
CUBEBUG 2 25 May 10:44:36 10:47:46 22° 289° (WNW) 10:50:59 437.445
UNISAT 6 25 May 10:46:52 10:51:19 84° 257° (WSW) 10:55:40 437.425
ZACube-1 25 May 10:50:22 10:54:18 42° 286° (WNW) 10:58:19 437.345
HO-68 25 May 10:54:42 10:59:19 19° 299° (WNW) 11:03:57 435.675
TIGRISAT 25 May 10:55:24 10:59:49 71° 258° (WSW) 11:04:09 435.000
POPSAT HIP 1 25 May 11:04:58 11:08:20 23° 71° (ENE) 11:11:41 437.405
QB50P1 25 May 11:05:36 11:09:00 24° 71° (ENE) 11:12:24 145.935-145.965
QB50P2 25 May 11:06:46 11:10:19 26° 72° (ENE) 11:13:50 145.880/145.840
POLYITAN 1 25 May 11:09:11 11:12:45 27° 72° (ENE) 11:16:19 437.675
UWE-3 25 May 11:20:04 11:21:56 13° 292° (WNW) 11:23:50 435.000/436.395/437.385
HUMSAT D 25 May 11:21:44 11:25:54 85° 283° (WNW) 11:30:05 437.325/437.525
SO-50 25 May 11:23:11 11:27:30 39° 247° (WSW) 11:31:40 436.795
NANOSAT C BR1 25 May 11:24:58 11:28:54 39° 74° (ENE) 11:32:50 145.865
ANTELSAT 25 May 11:29:03 11:32:45 26° 263° (W) 11:36:25 437.575/2403.000
AISAT 25 May 11:30:35 11:32:00 11° 93° (E) 11:33:23 437.250
Cosmos 2499 25 May 11:30:59 11:38:49 40° 272° (W) 11:46:51 435.465 / 435.565
FUNcube-1 25 May 11:31:14 11:33:42 15° 291° (WNW) 11:36:11 145.935
PCSat 25 May 11:31:22 11:35:48 25° 304° (NW) 11:40:16 145.827
BEESAT 3 25 May 11:32:04 11:35:22 26° 112° (ESE) 11:38:40 437.485
SRMSAT 25 May 11:33:27 11:38:05 24° 180° (S) 11:42:42 437.500
JUGNU 25 May 11:34:26 11:38:17 18° 192° (SSW) 11:42:07 437.505
JAS-2 25 May 11:42:22 11:46:49 18° 60° (ENE) 11:51:28 435.910
GONETS M04 25 May 11:44:37 11:50:08 19° 279° (W) 11:55:39
O/OREOS (USA 219) 25 May 11:46:44 11:47:04 10° 302° (WNW) 11:47:24 437.305
DANDE 25 May 11:47:02 11:48:59 12° 78° (ENE) 11:51:05 436.750
UKube-1 25 May 11:52:30 11:54:29 13° 94° (E) 11:56:27 .
ESTCUBE 1 25 May 11:55:30 11:59:43 36° 99° (E) 12:03:51 437.505/2401.250
50 SAT 25 May 12:01:23 12:04:40 29° 98° (E) 12:07:56 437.505
DUCHIFAT 1 25 May 12:04:32 12:08:45 69° 259° (W) 12:12:57 145.980
CUSAT 1 25 May 12:12:32 12:18:03 65° 93° (E) 12:25:08 437.405
Oscar 19 25 May 12:24:27 12:26:24 12° 64° (ENE) 12:28:21 437.125/150
VELOX 1 25 May 12:28:34 12:32:56 58° 100° (E) 12:37:15 145.980
CUBEBUG 1 25 May 12:28:37 12:32:58 60° 101° (E) 12:37:13 437.445
BEESAT 2 25 May 12:28:58 12:32:53 74° 117° (ESE) 12:36:52 435.950
DX 1 25 May 12:32:19 12:36:35 52° 101° (E) 12:40:48 434.975-435.025
BUGSAT 1 25 May 12:33:39 12:37:51 68° 258° (WSW) 12:42:03 437.445
POPSAT HIP 1 25 May 12:40:38 12:43:59 22° 264° (W) 12:47:20 437.405
QB50P1 25 May 12:41:22 12:44:39 22° 264° (W) 12:47:56 145.935-145.965
QB50P2 25 May 12:42:56 12:46:03 20° 264° (W) 12:49:09 145.880/145.840
POLYITAN 1 25 May 12:45:26 12:48:30 19° 264° (W) 12:51:33 437.675
NANOSAT C BR1 25 May 13:02:46 13:04:44 13° 266° (W) 13:06:43 145.865
AISAT 25 May 13:04:25 13:08:41 48° 286° (WNW) 13:12:53 437.250
SPROUT 25 May 13:07:32 13:11:44 63° 100° (E) 13:15:56 437.525
BEESAT 3 25 May 13:10:05 13:13:00 20° 306° (NW) 13:15:56 437.485
SRMSAT 25 May 13:22:32 13:26:39 19° 190° (S) 13:30:45 437.500
JAS-2 25 May 13:23:43 13:30:44 82° 258° (WSW) 13:38:30 435.910
DANDE 25 May 13:25:49 13:30:30 61° 281° (WNW) 13:36:50 436.750
UKube-1 25 May 13:26:35 13:30:39 41° 287° (WNW) 13:34:41 .
ESTCUBE 1 25 May 13:33:15 13:36:11 17° 292° (WNW) 13:39:05 437.505/2401.250
50 SAT 25 May 13:36:12 13:38:06 14° 291° (WNW) 13:40:01 437.505
TISAT 1 25 May 13:41:27 13:45:21 37° 99° (E) 13:49:11 437.305
AO-7 25 May 13:54:58 13:57:31 12° 52° (NE) 14:00:05 29.400- 29.500
CUSAT 1 25 May 13:57:07 14:01:03 17° 295° (WNW) 14:05:30 437.405
Oscar 19 25 May 13:59:55 14:05:04 68° 258° (WSW) 14:10:16 437.125/150
Gurwin Techsat 1B 25 May 14:02:24 14:07:29 49° 73° (ENE) 14:12:35 435.225
VELOX 1 25 May 14:08:09 14:08:51 10° 295° (WNW) 14:09:33 145.980
DX 1 25 May 14:11:01 14:12:15 11° 294° (WNW) 14:13:29 434.975-435.025
AIST 2 25 May 14:17:16 14:21:20 64° 116° (ESE) 14:25:26 435.215
ITAMSAT 1 25 May 14:36:22 14:41:07 39° 72° (ENE) 14:45:55 435.822/435.867
SWISSCUBE 25 May 14:46:56 14:51:26 40° 99° (E) 14:55:55 437.505
ITUPSAT 1 25 May 14:51:42 14:56:13 39° 99° (E) 15:00:41 437.325
Cosmos 2491 25 May 15:00:15 15:07:41 30° 74° (ENE) 15:15:02 435.465 / 435.565
YUBILEINY 25 May 15:01:46 15:04:01 11° 78° (ENE) 15:06:16 435.215
AO-85 25 May 15:10:03 15:12:38 15° 48° (NE) 15:15:06 145.980
JAS-2 25 May 15:14:57 15:16:47 11° 273° (W) 15:18:39 435.910
BEESAT 25 May 15:16:43 15:21:31 79° 103° (ESE) 15:26:18 436.000
TISAT 1 25 May 15:18:32 15:20:37 14° 292° (WNW) 15:22:42 437.305
AO-7 25 May 15:40:34 15:48:44 68° 70° (ENE) 15:56:58 29.400- 29.500
Gurwin Techsat 1B 25 May 15:44:26 15:47:37 16° 266° (W) 15:50:50 435.225
RS-15 25 May 15:46:11 15:50:34 13° 97° (E) 15:54:59 29.354- 29.394
AIST 2 25 May 15:59:25 16:00:12 10° 311° (NW) 16:00:59 435.215
STARS 25 May 16:01:02 16:01:48 10° 93° (E) 16:02:34 437.465
ITAMSAT 1 25 May 16:17:01 16:20:40 19° 265° (W) 16:24:20 435.822/435.867
SWISSCUBE 25 May 16:25:46 16:28:52 17° 292° (WNW) 16:31:58 437.505
ITUPSAT 1 25 May 16:30:32 16:33:42 18° 292° (WNW) 16:36:50 437.325
AO-85 25 May 16:49:08 16:53:27 47° 247° (WSW) 16:57:23 145.980
MOZHAYETS 4 25 May 16:49:27 16:54:04 69° 101° (E) 16:58:41
YUBILEINY 25 May 16:50:39 16:59:20 81° 94° (E) 17:08:03 435.215
KKS-1 25 May 16:51:45 16:56:11 80° 285° (WNW) 17:00:35 437.445
NOAA 15 25 May 16:54:05 16:55:23 11° 63° (ENE) 16:56:41 137.62
Cosmos 2491 25 May 16:56:24 17:04:40 49° 271° (W) 17:12:53 435.465 / 435.565
HORYU 2 25 May 17:11:44 17:16:09 80° 257° (WSW) 17:20:35 437.375
Cosmos 2504 25 May 17:29:02 17:35:18 34° 87° (E) 17:41:47 435.465 / 435.565
STARS 25 May 17:34:09 17:38:23 50° 286° (WNW) 17:42:35 437.465
CUTE-I 25 May 17:34:31 17:38:12 20° 67° (ENE) 17:41:54 437.470
AO-7 25 May 17:36:07 17:41:58 21° 264° (W) 17:47:52 29.400- 29.500
RS-15 25 May 17:49:41 18:00:49 77° 114° (ESE) 18:12:37 29.354- 29.394
LilacSat-2 25 May 17:59:21 18:02:24 23° 72° (ENE) 18:05:27 437.200
NOAA 18 25 May 18:04:51 18:10:07 51° 73° (ENE) 18:15:24 137.9125
BRITE-PL 25 May 18:07:18 18:12:35 47° 73° (ENE) 18:18:02 437.365/2234.400
CUBESAT XI-V 25 May 18:08:21 18:12:57 51° 99° (E) 18:17:30 437.345
DOVE 4 25 May 18:12:05 18:12:47 10° 65° (ENE) 18:13:31 437.250
Cubesat XI-IV 25 May 18:25:33 18:30:47 63° 74° (ENE) 18:36:02 437.490
NOAA 15 25 May 18:29:08 18:34:25 78° 258° (WSW) 18:39:45 137.62
PCSat 25 May 18:41:41 18:43:57 12° 50° (NE) 18:46:13 145.827
GOMX 1 25 May 18:44:01 18:49:19 52° 74° (ENE) 18:54:37 467.674
YUBILEINY 25 May 18:51:53 18:57:01 17° 291° (WNW) 19:02:12 435.215
AUBIESAT-1 25 May 18:53:48 18:55:09 11° 64° (ENE) 18:56:28 437.475
M-CUBED/EXP-1 PRIME 25 May 18:57:00 18:59:41 16° 66° (ENE) 19:02:15 437.505
CUTE-I 25 May 19:12:53 19:17:52 42° 260° (W) 19:22:55 437.470
Cosmos 2504 25 May 19:22:11 19:28:31 33° 284° (WNW) 19:35:07 435.465 / 435.565
HO-68 25 May 19:29:18 19:35:30 33° 66° (ENE) 19:41:42 435.675
CANX-2 25 May 19:34:04 19:37:08 20° 70° (ENE) 19:40:13 2200.000
LilacSat-2 25 May 19:34:04 19:36:38 17° 265° (W) 19:39:11 437.200
SEEDS 25 May 19:42:08 19:44:32 15° 69° (ENE) 19:46:55 437.485
DOVE 4 25 May 19:44:30 19:49:48 80° 258° (WSW) 19:54:59 437.250
BRITE-PL 25 May 19:47:19 19:51:11 19° 267° (W) 19:55:10 437.365/2234.400
CUBESAT XI-V 25 May 19:47:40 19:49:50 13° 293° (WNW) 19:51:59 437.345
NOAA 18 25 May 19:47:41 19:50:59 16° 265° (W) 19:54:19 137.9125
CUTE 1.7 + AOD 2 25 May 20:00:53 20:04:43 36° 74° (ENE) 20:08:36 437.475
CUBEBUG 2 25 May 20:03:23 20:05:07 12° 68° (ENE) 20:06:51 437.445
RS-15 25 May 20:04:56 20:14:28 30° 317° (NW) 20:24:30 29.354- 29.394
STRAND 1 25 May 20:08:44 20:13:52 69° 102° (ESE) 20:18:59 437.568
Cubesat XI-IV 25 May 20:09:12 20:11:12 12° 267° (W) 20:13:12 437.490
O/OREOS (USA 219) 25 May 20:17:23 20:21:48 57° 70° (ENE) 20:26:10 437.305
PCSat 25 May 20:22:32 20:27:59 82° 246° (WSW) 20:33:23 145.827
GOMX 1 25 May 20:24:08 20:27:33 17° 267° (W) 20:30:59 467.674
AUBIESAT-1 25 May 20:25:06 20:29:17 49° 255° (WSW) 20:33:12 437.475
M-CUBED/EXP-1 PRIME 25 May 20:29:57 20:33:59 35° 256° (WSW) 20:37:46 437.505
COMPASS 1 25 May 20:30:44 20:34:37 41° 74° (ENE) 20:38:31 437.405
CINEMA 3 25 May 20:32:05 20:36:57 82° 257° (WSW) 20:41:38 145.822/145.860
UWE-3 25 May 20:35:14 20:38:21 19° 70° (ENE) 20:41:24 435.000/436.395/437.385
AAUSAT CUBESAT 2 25 May 20:35:36 20:39:23 36° 74° (ENE) 20:43:11 437.432
FUNcube-1 25 May 20:46:19 20:48:48 15° 69° (ENE) 20:51:17 145.935
PRISM 25 May 20:47:24 20:50:58 27° 97° (E) 20:54:30 437.425
GONETS M04 25 May 20:49:16 20:53:31 15° 79° (E) 20:57:47
BEESAT 2 25 May 20:53:18 20:54:41 11° 50° (NE) 20:56:04 435.950
CANX-2 25 May 21:09:20 21:12:49 25° 264° (W) 21:16:18 2200.000
SEEDS 25 May 21:16:08 21:19:54 33° 262° (W) 21:23:41 437.485
HO-68 25 May 21:16:26 21:23:00 39° 261° (W) 21:29:36 435.675
ISS 25 May 21:19:10 21:22:04 30° 130° (SE) 21:24:59 145.825
PHONESAT 2.4 25 May 21:23:40 21:25:02 12° 141° (SE) 21:26:26 2401.200-2431.200
DELFI C3 25 May 21:24:33 21:27:40 22° 71° (ENE) 21:30:47 145.870
BEESAT 3 25 May 21:30:22 21:34:14 53° 60° (ENE) 21:38:04 437.485
Oscar 11 25 May 21:31:10 21:35:25 69° 76° (ENE) 21:39:42 145.826/435.025
CUBEBUG 2 25 May 21:37:02 21:41:20 47° 260° (W) 21:45:32 437.445
CUTE 1.7 + AOD 2 25 May 21:38:35 21:40:39 13° 267° (W) 21:42:45 437.475
ZACube-1 25 May 21:41:06 21:45:24 80° 79° (E) 21:49:37 437.345
STRAND 1 25 May 21:50:40 21:52:23 12° 296° (WNW) 21:54:07 437.568
AIST 1 25 May 22:03:33 22:07:52 59° 278° (W) 22:12:14
HUMSAT D 25 May 22:08:40 22:12:22 34° 73° (ENE) 22:16:04 437.325/437.525
COMPASS 1 25 May 22:08:56 22:10:19 11° 267° (W) 22:11:43 437.405
Cosmos 2499 25 May 22:10:17 22:16:17 30° 86° (E) 22:22:33 435.465 / 435.565
UWE-3 25 May 22:10:51 22:14:35 27° 263° (W) 22:18:16 435.000/436.395/437.385
AAUSAT CUBESAT 2 25 May 22:13:05 22:14:58 13° 267° (W) 22:16:51 437.432
FUNcube-1 25 May 22:20:53 22:24:45 34° 262° (W) 22:28:36 145.935
PRISM 25 May 22:23:08 22:26:03 19° 291° (WNW) 22:28:57 437.425
DANDE 25 May 22:28:49 22:33:07 15° 64° (ENE) 22:37:16 436.750
BEESAT 2 25 May 22:28:56 22:32:49 52° 245° (WSW) 22:36:39 435.950
RS-15 25 May 22:30:46 22:33:06 11° 351° (N) 22:35:26 29.354- 29.394
GONETS M04 25 May 22:40:15 22:49:06 87° 275° (W) 22:57:56
UNISAT 6 25 May 22:43:26 22:47:06 27° 97° (E) 22:50:49 437.425
AIST 2 25 May 22:44:48 22:46:23 12° 50° (NE) 22:47:58 435.215
ESTCUBE 1 25 May 22:51:17 22:54:32 20° 69° (ENE) 22:57:47 437.505/2401.250
TIGRISAT 25 May 22:51:35 22:55:25 31° 98° (E) 22:59:18 435.000
CUSAT 1 25 May 22:53:01 23:00:10 40° 74° (ENE) 23:06:09 437.405
ISS 25 May 22:56:03 22:58:32 20° 325° (NW) 23:01:01 145.825
PHONESAT 2.4 25 May 22:58:20 23:01:28 84° 338° (NNW) 23:04:36 2401.200-2431.200
DELFI C3 25 May 22:59:33 23:02:25 19° 265° (W) 23:05:19 145.870
CUBEBUG 1 25 May 23:20:14 23:24:01 28° 71° (ENE) 23:27:48 437.445
VELOX 1 25 May 23:21:34 23:25:25 29° 71° (ENE) 23:29:16 145.980
DX 1 25 May 23:23:41 23:27:17 25° 71° (ENE) 23:30:54 434.975-435.025
ANTELSAT 25 May 23:24:11 23:28:30 88° 96° (E) 23:32:54 437.575/2403.000
